StationID,Date,MaxTemp,MinTemp,Precipitation,Snowfall,SnowDepth
"USC00501821","2002-10-01",44.06,35.06,30.00,0.00,
"USC00501821","2002-10-02",44.06,33.98,56.00,0.00,0.00
"USC00501821","2002-10-03",37.04,19.04,18.00,3.00,0.00
"USC00501821","2002-10-04",35.96,28.04,0.00,0.00,0.00
"USC00501821","2002-10-05",37.94,14.00,0.00,0.00,0.00
"USC00501821","2002-10-06",37.94,26.96,51.00,64.00,76.00
"USC00501821","2002-10-07",35.06,28.94,0.00,0.00,0.00
"USC00501821","2002-10-08",48.02,30.92,127.00,0.00,0.00
"USC00501821","2002-10-09",37.04,17.96,0.00,0.00,0.00
"USC00501821","2002-10-10",39.02,3.02,0.00,0.00,0.00
"USC00501821","2002-10-11",37.94,26.96,0.00,0.00,0.00
"USC00501821","2002-10-12",37.04,28.04,0.00,0.00,0.00
"USC00501821","2002-10-13",39.92,23.00,13.00,0.00,0.00
"USC00501821","2002-10-14",48.02,24.98,0.00,0.00,0.00
"USC00501821","2002-10-15",48.02,26.06,0.00,0.00,0.00
"USC00501821","2002-10-16",37.94,26.06,234.00,25.00,25.00
"USC00501821","2002-10-17",42.98,28.04,0.00,0.00,25.00
"USC00501821","2002-10-18",39.92,28.04,112.00,51.00,51.00
"USC00501821","2002-10-19",35.96,28.04,25.00,0.00,51.00
"USC00501821","2002-10-20",42.08,28.94,0.00,0.00,25.00
"USC00501821","2002-10-21",42.08,28.94,0.00,0.00,25.00
"USC00501821","2002-10-22",48.92,21.02,0.00,0.00,
"USC00501821","2002-10-23",37.94,21.92,0.00,0.00,
"USC00501821","2002-10-24",44.06,21.92,0.00,0.00,
"USC00501821","2002-10-25",37.04,21.02,0.00,0.00,0.00
"USC00501821","2002-10-26",39.02,21.92,0.00,0.00,0.00
"USC00501821","2002-10-27",41.00,24.08,0.00,0.00,0.00
"USC00501821","2002-10-28",37.04,10.94,0.00,0.00,0.00
"USC00501821","2002-10-29",32.00,28.04,0.00,0.00,0.00
"USC00501821","2002-10-30",41.00,21.92,0.00,0.00,0.00
"USC00501821","2002-10-31",41.00,21.92,0.00,0.00,0.00
"USC00501821","2002-11-01",37.04,26.06,25.00,0.00,0.00
"USC00501821","2002-11-02",37.04,30.92,5.00,0.00,0.00
"USC00501821","2002-11-03",35.06,30.92,46.00,0.00,0.00
"USC00501821","2002-11-04",35.06,28.04,0.00,0.00,0.00
"USC00501821","2002-11-05",35.06,23.00,0.00,0.00,0.00
"USC00501821","2002-11-06",35.06,23.00,0.00,0.00,0.00
"USC00501821","2002-11-07",35.96,17.06,0.00,0.00,0.00
"USC00501821","2002-11-08",37.94,14.00,0.00,0.00,0.00
"USC00501821","2002-11-09",23.00,15.08,0.00,0.00,0.00
"USC00501821","2002-11-10",24.98,12.02,0.00,0.00,0.00
"USC00501821","2002-11-11",17.96,8.96,0.00,0.00,0.00
"USC00501821","2002-11-12",17.96,8.96,0.00,0.00,0.00
"USC00501821","2002-11-13",21.92,5.00,0.00,0.00,0.00
"USC00501821","2002-11-14",21.02,3.02,0.00,0.00,0.00
"USC00501821","2002-11-15",21.02,-0.94,0.00,0.00,0.00
"USC00501821","2002-11-16",15.08,-2.02,0.00,0.00,0.00
"USC00501821","2002-11-17",12.02,-9.94,0.00,0.00,0.00
"USC00501821","2002-11-18",10.94,-5.08,0.00,0.00,0.00
"USC00501821","2002-11-19",19.94,-2.02,0.00,0.00,0.00
"USC00501821","2002-11-20",19.04,8.96,0.00,0.00,0.00
"USC00501821","2002-11-21",21.02,-0.94,0.00,0.00,0.00
"USC00501821","2002-11-22",21.02,-0.94,0.00,0.00,0.00
"USC00501821","2002-11-23",28.94,-2.02,0.00,0.00,0.00
"USC00501821","2002-11-24",26.96,15.08,0.00,0.00,0.00
"USC00501821","2002-11-25",39.02,14.00,0.00,0.00,0.00
"USC00501821","2002-11-26",39.92,21.02,8.00,0.00,0.00
"USC00501821","2002-11-27",41.00,30.92,203.00,51.00,51.00
"USC00501821","2002-11-28",37.94,30.02,0.00,0.00,51.00
"USC00501821","2002-11-29",33.98,26.06,0.00,0.00,51.00
"USC00501821","2002-11-30",33.98,21.02,0.00,0.00,51.00
"USC00501821","2002-12-01",33.98,10.94,0.00,0.00,51.00
"USC00501821","2002-12-02",24.08,-0.04,0.00,0.00,51.00
"USC00501821","2002-12-03",19.04,3.02,0.00,0.00,51.00
"USC00501821","2002-12-04",21.02,12.92,0.00,0.00,51.00
"USC00501821","2002-12-05",24.08,8.96,0.00,0.00,51.00
"USC00501821","2002-12-06",17.06,6.08,0.00,0.00,51.00
"USC00501821","2002-12-07",17.96,8.96,0.00,0.00,51.00
"USC00501821","2002-12-08",23.00,6.08,53.00,76.00,127.00
"USC00501821","2002-12-09",8.96,-7.96,0.00,0.00,127.00
"USC00501821","2002-12-10",8.96,-7.96,0.00,0.00,127.00
"USC00501821","2002-12-11",3.02,-9.04,0.00,0.00,127.00
"USC00501821","2002-12-12",12.02,-7.96,0.00,0.00,127.00
"USC00501821","2002-12-13",10.94,-7.96,0.00,0.00,127.00
"USC00501821","2002-12-14",8.96,-16.96,0.00,0.00,127.00
"USC00501821","2002-12-15",8.06,-23.98,0.00,0.00,127.00
"USC00501821","2002-12-16",-9.94,-18.04,0.00,0.00,127.00
"USC00501821","2002-12-17",-0.94,-18.94,0.00,0.00,127.00
"USC00501821","2002-12-18",3.02,-18.94,0.00,0.00,127.00
"USC00501821","2002-12-19",8.06,-18.94,38.00,51.00,178.00
"USC00501821","2002-12-20",8.96,-22.00,46.00,64.00,254.00
"USC00501821","2002-12-21",-16.96,-29.02,0.00,0.00,254.00
"USC00501821","2002-12-22",1.94,-25.06,0.00,0.00,254.00
"USC00501821","2002-12-23",10.94,-9.04,0.00,0.00,254.00
"USC00501821","2002-12-24",10.04,-7.06,0.00,0.00,254.00
"USC00501821","2002-12-25",3.02,-16.06,0.00,0.00,254.00
"USC00501821","2002-12-26",6.08,-14.98,5.00,13.00,254.00
"USC00501821","2002-12-27",6.98,-14.98,0.00,0.00,254.00
"USC00501821","2002-12-28",6.08,-20.92,0.00,0.00,254.00
"USC00501821","2002-12-29",-4.00,-27.94,0.00,0.00,254.00
"USC00501821","2002-12-30",-0.94,-18.04,28.00,13.00,279.00
"USC00501821","2002-12-31",5.00,-0.94,119.00,216.00,508.00
"USC00501821","2003-01-01",5.00,-9.04,15.00,13.00,483.00
"USC00501821","2003-01-02",3.02,-9.04,0.00,0.00,483.00
"USC00501821","2003-01-03",-4.00,-27.94,0.00,0.00,457.00
"USC00501821","2003-01-04",-9.04,-2.92,79.00,152.00,610.00
"USC00501821","2003-01-05",24.08,-5.98,0.00,0.00,584.00
"USC00501821","2003-01-06",24.08,-11.92,0.00,0.00,559.00
"USC00501821","2003-01-07",24.98,-16.96,0.00,0.00,483.00
"USC00501821","2003-01-08",-2.02,-16.96,0.00,0.00,483.00
"USC00501821","2003-01-09",8.06,-9.04,0.00,0.00,483.00
"USC00501821","2003-01-10",10.94,3.92,0.00,0.00,483.00
"USC00501821","2003-01-11",8.96,-9.04,0.00,0.00,483.00
"USC00501821","2003-01-12",8.96,-13.00,0.00,0.00,483.00
"USC00501821","2003-01-13",6.98,-9.04,0.00,0.00,483.00
"USC00501821","2003-01-14",10.04,-9.04,0.00,0.00,483.00
"USC00501821","2003-01-15",14.00,-9.04,0.00,0.00,483.00
"USC00501821","2003-01-16",3.92,-20.02,0.00,0.00,457.00
"USC00501821","2003-01-17",1.04,-22.00,0.00,0.00,406.00
"USC00501821","2003-01-18",17.06,-5.98,0.00,0.00,381.00
"USC00501821","2003-01-19",10.04,-5.98,0.00,0.00,381.00
"USC00501821","2003-01-20",15.08,-5.98,0.00,0.00,356.00
"USC00501821","2003-01-21",12.02,-7.96,0.00,0.00,356.00
"USC00501821","2003-01-22",17.96,-7.96,0.00,0.00,356.00
"USC00501821","2003-01-23",12.92,-0.04,0.00,0.00,356.00
"USC00501821","2003-01-24",3.02,-14.08,0.00,0.00,356.00
"USC00501821","2003-01-25",6.08,-20.02,0.00,0.00,356.00
"USC00501821","2003-01-26",-2.92,-25.96,0.00,0.00,356.00
"USC00501821","2003-01-27",-7.96,-25.06,0.00,0.00,356.00
"USC00501821","2003-01-28",1.04,-23.98,0.00,0.00,356.00
"USC00501821","2003-01-29",8.96,-14.08,0.00,0.00,356.00
"USC00501821","2003-01-30",12.92,-2.92,0.00,0.00,356.00
"USC00501821","2003-01-31",15.08,-2.92,0.00,0.00,356.00
"USC00501821","2003-02-01",12.02,-2.92,0.00,0.00,356.00
"USC00501821","2003-02-02",19.94,-4.00,0.00,0.00,356.00
"USC00501821","2003-02-03",26.06,10.04,0.00,0.00,356.00
"USC00501821","2003-02-04",28.94,14.00,0.00,0.00,356.00
"USC00501821","2003-02-05",39.92,12.92,0.00,0.00,356.00
"USC00501821","2003-02-06",33.98,17.06,0.00,0.00,356.00
"USC00501821","2003-02-07",35.06,12.02,0.00,0.00,356.00
"USC00501821","2003-02-08",35.96,6.08,0.00,0.00,356.00
"USC00501821","2003-02-09",35.06,5.00,0.00,0.00,356.00
"USC00501821","2003-02-10",35.96,6.08,0.00,0.00,356.00
"USC00501821","2003-02-11",35.96,28.94,0.00,0.00,356.00
"USC00501821","2003-02-12",35.06,24.98,86.00,0.00,356.00
"USC00501821","2003-02-13",30.92,19.04,0.00,0.00,356.00
"USC00501821","2003-02-14",30.02,3.02,0.00,0.00,356.00
"USC00501821","2003-02-15",23.00,-9.94,0.00,0.00,356.00
"USC00501821","2003-02-16",21.92,-13.00,0.00,0.00,356.00
"USC00501821","2003-02-17",12.92,-5.98,0.00,0.00,356.00
"USC00501821","2003-02-18",8.06,-5.08,0.00,0.00,356.00
"USC00501821","2003-02-19",10.94,-11.02,0.00,0.00,356.00
"USC00501821","2003-02-20",12.92,-27.04,0.00,0.00,356.00
"USC00501821","2003-02-21",8.96,-4.00,0.00,0.00,356.00
"USC00501821","2003-02-22",14.00,-11.02,0.00,0.00,356.00
"USC00501821","2003-02-23",21.92,-2.02,0.00,0.00,356.00
"USC00501821","2003-02-24",26.06,5.00,0.00,0.00,356.00
"USC00501821","2003-02-25",33.08,10.04,0.00,0.00,356.00
"USC00501821","2003-02-26",32.00,12.92,0.00,0.00,356.00
"USC00501821","2003-02-27",33.08,12.92,0.00,0.00,356.00
"USC00501821","2003-02-28",33.98,14.00,0.00,0.00,356.00
"USC00501821","2003-03-01",37.04,21.02,0.00,0.00,356.00
"USC00501821","2003-03-02",37.04,17.06,0.00,0.00,356.00
"USC00501821","2003-03-03",37.04,15.98,0.00,0.00,356.00
"USC00501821","2003-03-04",35.96,10.04,0.00,0.00,356.00
"USC00501821","2003-03-05",35.96,5.00,0.00,0.00,356.00
"USC00501821","2003-03-06",23.00,5.00,0.00,0.00,356.00
"USC00501821","2003-03-07",23.00,3.92,0.00,0.00,356.00
"USC00501821","2003-03-08",19.04,8.06,0.00,0.00,356.00
"USC00501821","2003-03-09",19.04,-9.04,0.00,0.00,356.00
"USC00501821","2003-03-10",5.00,1.04,0.00,0.00,356.00
"USC00501821","2003-03-11",15.08,-25.06,0.00,0.00,356.00
"USC00501821","2003-03-12",19.04,-25.96,0.00,0.00,356.00
"USC00501821","2003-03-13",-2.02,-16.06,0.00,0.00,356.00
"USC00501821","2003-03-14",-2.02,-25.96,0.00,0.00,356.00
"USC00501821","2003-03-15",3.92,-20.92,0.00,0.00,356.00
"USC00501821","2003-03-16",35.06,-20.92,0.00,0.00,356.00
"USC00501821","2003-03-17",35.06,1.04,0.00,0.00,356.00
"USC00501821","2003-03-18",35.96,-11.92,0.00,0.00,356.00
"USC00501821","2003-03-19",35.06,-11.02,0.00,0.00,356.00
"USC00501821","2003-03-20",37.94,-5.98,0.00,0.00,356.00
"USC00501821","2003-03-21",39.92,-5.08,0.00,0.00,356.00
"USC00501821","2003-03-22",41.00,-4.00,0.00,0.00,356.00
"USC00501821","2003-03-23",26.06,-5.08,0.00,,356.00
"USC00501821","2003-03-24",35.06,10.04,0.00,0.00,356.00
"USC00501821","2003-03-25",28.94,5.00,0.00,0.00,356.00
"USC00501821","2003-03-26",32.00,6.08,0.00,0.00,356.00
"USC00501821","2003-03-27",35.96,8.96,0.00,0.00,356.00
"USC00501821","2003-03-28",35.06,10.04,0.00,0.00,356.00
"USC00501821","2003-03-29",35.06,12.02,0.00,0.00,356.00
"USC00501821","2003-03-30",35.96,,0.00,0.00,356.00
"USC00501821","2003-03-31",24.98,6.08,0.00,0.00,356.00
"USC00501821","2003-04-01",21.02,-2.92,0.00,0.00,330.00
"USC00501821","2003-04-02",17.96,-20.92,0.00,0.00,330.00
"USC00501821","2003-04-03",19.94,-16.96,0.00,0.00,330.00
"USC00501821","2003-04-04",28.04,-18.94,0.00,0.00,330.00
"USC00501821","2003-04-05",33.08,-16.96,0.00,0.00,330.00
"USC00501821","2003-04-06",35.06,-14.98,0.00,0.00,305.00
"USC00501821","2003-04-07",33.98,-2.92,0.00,0.00,305.00
"USC00501821","2003-04-08",33.08,5.00,0.00,0.00,305.00
"USC00501821","2003-04-09",39.92,1.94,0.00,0.00,305.00
"USC00501821","2003-04-10",42.98,3.02,0.00,0.00,279.00
"USC00501821","2003-04-11",46.94,10.94,0.00,0.00,279.00
"USC00501821","2003-04-12",48.02,15.98,0.00,0.00,279.00
"USC00501821","2003-04-13",48.92,17.06,0.00,0.00,279.00
"USC00501821","2003-04-14",39.92,12.92,0.00,0.00,279.00
"USC00501821","2003-04-15",48.92,14.00,0.00,0.00,279.00
"USC00501821","2003-04-16",46.94,26.96,0.00,0.00,254.00
"USC00501821","2003-04-17",46.04,15.08,0.00,0.00,203.00
"USC00501821","2003-04-18",46.04,19.04,0.00,0.00,152.00
"USC00501821","2003-04-19",48.92,17.06,0.00,0.00,76.00
"USC00501821","2003-04-20",50.00,17.96,0.00,0.00,0.00
"USC00501821","2003-04-21",50.00,15.98,0.00,0.00,0.00
"USC00501821","2003-04-22",48.02,17.96,0.00,0.00,0.00
"USC00501821","2003-04-23",51.98,19.94,0.00,0.00,0.00
"USC00501821","2003-04-24",53.06,21.92,0.00,0.00,0.00
"USC00501821","2003-04-25",59.00,21.92,0.00,0.00,0.00
"USC00501821","2003-04-26",62.96,23.00,0.00,0.00,0.00
"USC00501821","2003-04-27",66.02,24.08,0.00,0.00,0.00
"USC00501821","2003-04-28",69.98,24.08,0.00,0.00,0.00
"USC00501821","2003-04-29",66.92,23.00,0.00,0.00,0.00
"USC00501821","2003-04-30",64.94,24.08,0.00,0.00,0.00
"USC00501821","2003-05-01",64.04,24.98,0.00,0.00,0.00
"USC00501821","2003-05-02",64.04,24.08,0.00,0.00,0.00
"USC00501821","2003-05-03",64.04,24.08,0.00,0.00,0.00
"USC00501821","2003-05-04",48.92,26.06,0.00,0.00,0.00
"USC00501821","2003-05-05",51.08,28.94,0.00,0.00,0.00
"USC00501821","2003-05-06",55.04,28.94,0.00,0.00,0.00
"USC00501821","2003-05-07",55.94,24.08,0.00,0.00,0.00
"USC00501821","2003-05-08",50.00,26.96,0.00,0.00,0.00
"USC00501821","2003-05-09",57.02,28.04,0.00,0.00,0.00
"USC00501821","2003-05-10",60.98,28.94,0.00,0.00,0.00
"USC00501821","2003-05-11",48.02,33.98,0.00,0.00,0.00
"USC00501821","2003-05-12",46.94,21.92,0.00,0.00,0.00
"USC00501821","2003-05-13",44.06,26.06,117.00,0.00,0.00
"USC00501821","2003-05-14",51.08,32.00,0.00,0.00,0.00
"USC00501821","2003-05-15",50.00,28.04,0.00,0.00,0.00
"USC00501821","2003-05-16",53.96,28.04,0.00,0.00,0.00
"USC00501821","2003-05-17",51.98,26.06,0.00,0.00,0.00
"USC00501821","2003-05-18",55.94,23.00,0.00,0.00,0.00
"USC00501821","2003-05-19",53.06,24.08,0.00,0.00,0.00
"USC00501821","2003-05-20",55.94,26.06,0.00,0.00,0.00
"USC00501821","2003-05-21",57.92,24.08,0.00,0.00,0.00
"USC00501821","2003-05-22",59.00,21.92,0.00,0.00,0.00
"USC00501821","2003-05-23",60.08,28.94,0.00,0.00,0.00
"USC00501821","2003-05-24",60.08,32.00,0.00,0.00,0.00
"USC00501821","2003-05-25",59.00,32.00,0.00,0.00,0.00
"USC00501821","2003-05-26",59.00,33.98,0.00,0.00,0.00
"USC00501821","2003-05-27",60.08,24.08,0.00,0.00,0.00
"USC00501821","2003-05-28",62.96,28.04,0.00,0.00,0.00
"USC00501821","2003-05-29",66.92,32.00,0.00,0.00,0.00
"USC00501821","2003-05-30",69.98,30.92,0.00,0.00,0.00
"USC00501821","2003-05-31",66.92,39.92,33.00,0.00,0.00
"USC00501821","2003-06-01",62.96,30.02,33.00,0.00,0.00
"USC00501821","2003-06-02",60.08,30.92,0.00,0.00,0.00
"USC00501821","2003-06-03",60.08,30.02,10.00,0.00,0.00
"USC00501821","2003-06-04",62.96,30.02,15.00,0.00,0.00
"USC00501821","2003-06-05",64.04,28.94,8.00,0.00,0.00
"USC00501821","2003-06-06",66.02,28.04,3.00,0.00,0.00
"USC00501821","2003-06-07",69.98,26.96,0.00,0.00,0.00
"USC00501821","2003-06-08",64.04,26.06,0.00,0.00,0.00
"USC00501821","2003-06-09",66.92,28.04,38.00,0.00,0.00
"USC00501821","2003-06-10",71.06,28.04,25.00,0.00,0.00
"USC00501821","2003-06-11",73.04,30.92,0.00,0.00,0.00
"USC00501821","2003-06-12",77.00,32.00,0.00,0.00,0.00
"USC00501821","2003-06-13",77.00,35.06,0.00,0.00,0.00
"USC00501821","2003-06-14",75.02,33.98,0.00,0.00,0.00
"USC00501821","2003-06-15",68.00,28.04,0.00,0.00,0.00
"USC00501821","2003-06-16",66.92,33.98,0.00,0.00,0.00
"USC00501821","2003-06-17",68.00,30.02,0.00,0.00,0.00
"USC00501821","2003-06-18",71.06,33.08,0.00,0.00,0.00
"USC00501821","2003-06-19",68.00,46.04,13.00,0.00,0.00
"USC00501821","2003-06-20",69.98,42.98,5.00,0.00,0.00
"USC00501821","2003-06-21",69.08,46.04,8.00,0.00,0.00
"USC00501821","2003-06-22",64.94,37.94,0.00,0.00,0.00
"USC00501821","2003-06-23",71.06,30.92,0.00,0.00,0.00
"USC00501821","2003-06-24",69.08,46.04,0.00,0.00,0.00
"USC00501821","2003-06-25",64.94,39.92,0.00,0.00,0.00
"USC00501821","2003-06-26",62.96,32.00,0.00,0.00,0.00
"USC00501821","2003-06-27",64.04,33.98,0.00,0.00,0.00
"USC00501821","2003-06-28",64.04,33.98,0.00,0.00,0.00
"USC00501821","2003-06-29",75.92,46.94,0.00,0.00,0.00
"USC00501821","2003-06-30",77.00,42.08,0.00,0.00,0.00
"USC00501821","2003-07-01",78.08,41.00,0.00,0.00,0.00
"USC00501821","2003-07-02",80.06,39.92,79.00,0.00,0.00
"USC00501821","2003-07-03",73.94,41.00,51.00,0.00,0.00
"USC00501821","2003-07-04",77.00,39.92,0.00,0.00,0.00
"USC00501821","2003-07-05",75.02,33.98,0.00,0.00,0.00
"USC00501821","2003-07-06",73.94,33.08,0.00,0.00,0.00
"USC00501821","2003-07-07",75.92,37.94,0.00,0.00,0.00
"USC00501821","2003-07-08",78.08,37.04,0.00,0.00,0.00
"USC00501821","2003-07-09",80.06,37.94,0.00,0.00,0.00
"USC00501821","2003-07-10",82.04,37.94,0.00,0.00,0.00
"USC00501821","2003-07-11",80.96,39.02,0.00,0.00,0.00
"USC00501821","2003-07-12",78.98,37.04,0.00,0.00,0.00
"USC00501821","2003-07-13",80.96,35.06,0.00,0.00,0.00
"USC00501821","2003-07-14",78.08,46.94,53.00,0.00,0.00
"USC00501821","2003-07-15",78.98,48.92,84.00,0.00,0.00
"USC00501821","2003-07-16",78.98,39.02,0.00,0.00,0.00
"USC00501821","2003-07-17",75.92,41.00,0.00,0.00,0.00
"USC00501821","2003-07-18",78.98,30.92,0.00,0.00,0.00
"USC00501821","2003-07-19",80.06,30.92,0.00,0.00,0.00
"USC00501821","2003-07-20",80.96,30.92,0.00,0.00,0.00
"USC00501821","2003-07-21",82.94,42.08,0.00,0.00,0.00
"USC00501821","2003-07-22",68.00,42.08,0.00,0.00,0.00
"USC00501821","2003-07-23",75.02,39.92,0.00,0.00,0.00
"USC00501821","2003-07-24",66.92,37.94,0.00,0.00,0.00
"USC00501821","2003-07-25",57.92,35.96,0.00,0.00,0.00
"USC00501821","2003-07-26",59.00,37.04,38.00,0.00,0.00
"USC00501821","2003-07-27",60.98,35.06,53.00,0.00,0.00
"USC00501821","2003-07-28",62.96,33.98,23.00,0.00,0.00
"USC00501821","2003-07-29",64.04,33.98,28.00,0.00,0.00
"USC00501821","2003-07-30",64.04,44.06,5.00,0.00,0.00
"USC00501821","2003-07-31",64.04,42.08,0.00,0.00,0.00
"USC00501821","2003-08-01",59.00,33.98,28.00,0.00,0.00
"USC00501821","2003-08-02",59.00,37.94,20.00,0.00,0.00
"USC00501821","2003-08-03",64.94,32.00,30.00,0.00,0.00
"USC00501821","2003-08-04",53.06,42.08,41.00,0.00,0.00
"USC00501821","2003-08-05",62.06,26.96,25.00,0.00,0.00
"USC00501821","2003-08-06",66.02,42.98,13.00,0.00,0.00
"USC00501821","2003-08-07",73.04,30.92,0.00,0.00,0.00
"USC00501821","2003-08-08",78.08,30.92,0.00,0.00,0.00
"USC00501821","2003-08-09",73.94,39.02,0.00,0.00,0.00
"USC00501821","2003-08-10",77.00,30.02,0.00,0.00,0.00
"USC00501821","2003-08-11",80.06,42.98,0.00,0.00,0.00
"USC00501821","2003-08-12",71.96,51.08,97.00,0.00,0.00
"USC00501821","2003-08-13",71.96,48.92,5.00,0.00,0.00
"USC00501821","2003-08-14",66.92,44.96,0.00,0.00,0.00
"USC00501821","2003-08-15",62.96,44.96,13.00,0.00,0.00
"USC00501821","2003-08-16",66.92,37.04,13.00,0.00,0.00
"USC00501821","2003-08-17",64.94,44.06,30.00,0.00,0.00
"USC00501821","2003-08-18",64.04,33.98,5.00,0.00,0.00
"USC00501821","2003-08-19",64.94,30.92,0.00,0.00,0.00
"USC00501821","2003-08-20",64.04,24.98,5.00,0.00,0.00
"USC00501821","2003-08-21",64.04,35.96,25.00,0.00,0.00
"USC00501821","2003-08-22",53.96,35.96,25.00,0.00,0.00
"USC00501821","2003-08-23",60.98,28.04,8.00,0.00,0.00
"USC00501821","2003-08-24",60.08,35.06,0.00,0.00,0.00
"USC00501821","2003-08-25",60.08,35.06,0.00,0.00,0.00
"USC00501821","2003-08-26",60.08,44.96,0.00,0.00,0.00
"USC00501821","2003-08-27",53.96,39.02,25.00,0.00,0.00
"USC00501821","2003-08-28",64.94,33.98,51.00,0.00,0.00
"USC00501821","2003-08-29",64.04,33.98,3.00,0.00,0.00
"USC00501821","2003-08-30",62.96,30.02,5.00,0.00,0.00
"USC00501821","2003-08-31",62.96,33.98,0.00,0.00,0.00
"USC00501821","2003-09-01",64.94,30.02,173.00,0.00,0.00
"USC00501821","2003-09-02",53.06,33.98,0.00,0.00,0.00
"USC00501821","2003-09-03",53.96,35.96,0.00,0.00,0.00
"USC00501821","2003-09-04",59.00,35.96,0.00,0.00,0.00
"USC00501821","2003-09-05",62.06,26.96,0.00,0.00,0.00
"USC00501821","2003-09-06",62.96,26.06,0.00,0.00,0.00
"USC00501821","2003-09-07",64.04,28.04,0.00,0.00,0.00
"USC00501821","2003-09-08",62.96,32.00,0.00,0.00,0.00
"USC00501821","2003-09-09",59.00,26.06,0.00,0.00,0.00
"USC00501821","2003-09-10",55.04,26.06,0.00,0.00,0.00
"USC00501821","2003-09-11",64.94,21.02,0.00,0.00,0.00
"USC00501821","2003-09-12",64.94,37.04,0.00,0.00,0.00
"USC00501821","2003-09-13",53.06,26.06,107.00,0.00,0.00
"USC00501821","2003-09-14",57.92,21.92,0.00,0.00,0.00
"USC00501821","2003-09-15",39.92,24.08,0.00,0.00,0.00
"USC00501821","2003-09-16",48.92,14.00,0.00,0.00,0.00
"USC00501821","2003-09-17",39.02,15.08,0.00,0.00,0.00
"USC00501821","2003-09-18",42.08,24.08,76.00,0.00,0.00
"USC00501821","2003-09-19",42.08,24.08,99.00,0.00,0.00
"USC00501821","2003-09-20",37.94,15.98,0.00,0.00,0.00
"USC00501821","2003-09-21",37.94,19.94,0.00,0.00,0.00
"USC00501821","2003-09-22",41.00,24.08,0.00,0.00,0.00
"USC00501821","2003-09-23",41.00,17.96,0.00,0.00,0.00
"USC00501821","2003-09-24",44.06,21.92,0.00,0.00,0.00
"USC00501821","2003-09-25",39.02,26.96,0.00,0.00,0.00
"USC00501821","2003-09-26",39.02,33.08,23.00,0.00,0.00
"USC00501821","2003-09-27",46.04,21.92,0.00,0.00,0.00
"USC00501821","2003-09-28",55.04,24.98,0.00,0.00,0.00
"USC00501821","2003-09-29",48.92,39.02,0.00,0.00,0.00
"USC00501821","2003-09-30",57.92,39.02,8.00,0.00,0.00
"USC00501821","2003-10-01",57.92,37.94,23.00,0.00,0.00
"USC00501821","2003-10-02",66.02,28.94,0.00,0.00,0.00
"USC00501821","2003-10-03",64.94,28.94,79.00,79.00,0.00
"USC00501821","2003-10-04",66.02,26.06,0.00,0.00,0.00
"USC00501821","2003-10-05",66.92,28.04,0.00,0.00,0.00
"USC00501821","2003-10-06",57.92,28.94,0.00,0.00,0.00
"USC00501821","2003-10-07",50.00,28.94,64.00,64.00,0.00
"USC00501821","2003-10-08",53.06,23.00,0.00,0.00,0.00
"USC00501821","2003-10-09",51.98,24.08,5.00,0.00,0.00
"USC00501821","2003-10-10",53.06,24.08,0.00,0.00,0.00
"USC00501821","2003-10-11",53.06,10.94,0.00,0.00,0.00
"USC00501821","2003-10-12",44.96,3.02,0.00,0.00,0.00
"USC00501821","2003-10-13",44.96,3.02,0.00,0.00,0.00
"USC00501821","2003-10-14",39.02,3.02,0.00,0.00,0.00
"USC00501821","2003-10-15",42.08,3.02,0.00,0.00,0.00
"USC00501821","2003-10-16",44.96,10.94,0.00,0.00,0.00
"USC00501821","2003-10-17",44.96,15.98,0.00,0.00,0.00
"USC00501821","2003-10-18",39.02,3.02,0.00,0.00,0.00
"USC00501821","2003-10-19",33.98,15.08,0.00,0.00,0.00
"USC00501821","2003-10-20",37.94,14.00,0.00,0.00,0.00
"USC00501821","2003-10-21",44.96,8.06,0.00,0.00,0.00
"USC00501821","2003-10-22",39.92,1.04,0.00,0.00,0.00
"USC00501821","2003-10-23",39.02,17.96,0.00,0.00,0.00
"USC00501821","2003-10-24",37.04,17.06,0.00,0.00,0.00
"USC00501821","2003-10-25",37.04,15.08,38.00,38.00,51.00
"USC00501821","2003-10-26",35.96,17.96,0.00,0.00,25.00
"USC00501821","2003-10-27",44.96,17.06,0.00,0.00,25.00
"USC00501821","2003-10-28",44.96,5.00,0.00,0.00,0.00
"USC00501821","2003-10-29",35.96,5.00,0.00,0.00,0.00
"USC00501821","2003-10-30",33.98,5.00,0.00,0.00,0.00
"USC00501821","2003-10-31",33.98,-5.08,0.00,0.00,0.00
